Vorticity
7 8 9 11 12 4 14 1 6 -7 3 5 6 6 7 2 -8 -13 -1 8 13 11 9 13 6 4 6 6 5 4 6 4 6 9 7 6 5 5 5 5 4 4 4 5 5 5 5 5 6
5 6 6 5 -1 0 2 13 -3 16 8 -1 0 10 18 12 1 4 -16 -23 -6 8 10 12 6 5 8 7 6 3 5 5 5 9 7 5 4 5 5 5 4 4 4 4 5 5 5 5 6
9 8 11 12 15 5 6 18 12 3 6 3 2 14 -6 10 21 8 -3 2 7 -6 8 14 5 6 9 8 6 5 4 6 9 5 6 4 4 5 5 4 4 4 4 4 4 5 5 5 5
10 11 14 6 -5 2 -11 -5 5 0 16 14 -1 -4 5 1 7 12 17 4 -5 4 7 14 5 8 8 7 5 5 6 6 9 5 6 4 4 5 5 4 4 4 4 4 4 4 5 5 5
8 10 13 4 8 1 7 11 3 9 3 6 11 21 -12 5 2 8 7 13 6 0 6 11 7 8 6 5 5 5 6 7 8 5 6 4 5 5 5 4 4 4 4 4 4 4 5 5 5
12 6 6 8 10 -4 10 13 9 10 11 13 12 21 16 9 -16 -6 -3 16 15 3 7 8 8 7 4 6 6 5 6 7 7 6 6 5 4 5 5 4 4 4 4 4 4 4 4 4 5
8 9 2 2 9 12 9 10 15 11 2 11 11 8 12 22 8 -2 -8 -7 17 10 6 7 5 6 4 6 6 6 6 7 6 6 6 5 4 5 5 4 4 4 4 4 4 4 4 4 5
9 13 9 10 3 0 9 8 8 13 10 8 7 24 27 26 6 15 10 1 13 14 5 4 4 4 4 5 5 6 6 6 6 7 6 5 5 5 6 4 4 4 4 4 3 3 3 4 4
9 15 6 -1 12 2 7 11 2 12 11 12 3 4 -1 -2 5 8 16 9 6 17 4 4 3 6 6 4 5 6 6 7 6 7 6 5 5 5 5 4 4 4 4 4 3 3 3 3 3
12 12 3 4 5 7 1 4 8 8 6 10 14 11 14 9 20 -6 9 14 4 18 4 0 3 6 6 4 5 6 6 7 6 7 7 5 5 5 5 5 4 4 4 4 4 4 4 4 4
-3 9 7 11 8 7 6 19 8 9 9 11 17 19 14 8 11 12 -4 23 1 18 7 -0 6 6 5 5 4 6 7 7 7 6 7 6 6 5 5 5 5 4 4 4 4 3 4 4 4
6 10 9 12 4 8 9 10 11 11 16 20 13 17 22 6 8 9 10 5 13 6 9 3 4 6 4 5 4 6 7 7 7 7 7 6 6 6 6 5 5 5 4 4 4 4 4 4 4
-3 11 14 15 4 11 11 15 13 12 16 12 10 15 19 15 7 8 13 8 9 -22 18 2 5 6 5 4 4 6 7 7 8 7 7 7 6 6 6 6 6 4 4 4 4 4 4 4 4
8 6 12 12 16 5 3 6 5 15 10 15 15 14 17 22 -1 13 7 13 14 -9 26 1 8 5 6 3 4 5 7 7 7 8 7 8 7 6 6 6 6 5 5 5 5 4 5 5 5
13 16 -1 -11 21 17 4 16 16 3 8 -0 16 17 16 15 7 4 12 14 15 1 53 -1 11 6 8 3 4 6 7 7 7 8 7 7 7 6 6 6 6 6 5 5 5 5 5 5 5
11 12 20 -6 -3 11 0 -4 13 6 10 15 8 8 12 21 1 6 7 9 15 -11 26 17 15 3 11 4 4 5 7 6 7 8 7 7 7 6 7 7 6 6 5 5 5 5 5 5 5
7 -5 6 23 15 0 13 -7 21 24 14 10 24 16 13 19 6 -2 10 4 27 33 39 -15 6 4 13 5 4 5 7 8 8 8 7 7 7 6 7 6 6 6 6 6 5 5 5 5 5
-13 2 -5 1 -7 1 11 6 8 17 29 26 20 14 14 17 13 1 -0 4 4 11 33 23 6 40 11 6 5 6 7 7 7 7 7 7 7 6 6 6 6 6 6 6 5 5 5 5 5
7 6 3 3 28 -7 14 13 24 6 19 29 13 21 24 15 27 4 2 3 6 19 -0 38 11 6 45 4 4 5 7 7 6 6 6 6 6 6 5 6 6 6 5 5 5 5 5 5 5
6 6 12 22 -3 5 16 41 16 14 4 13 29 23 14 16 19 19 1 3 4 6 14 -11 -1 -19 71 32 -0 6 6 6 6 7 7 6 5 5 5 5 6 5 5 5 5 5 5 5 5
13 6 15 -1 1 28 5 29 11 4 6 7 14 18 20 21 15 16 20 6 -0 3 3 8 33 13 -60 15 -4 10 7 6 7 6 6 6 5 5 4 5 6 5 5 4 4 5 5 5 5
19 9 1 1 21 8 9 -4 8 4 -2 9 -1 16 14 17 19 21 12 19 16 1 5 6 8 6 17 26 -43 80 9 5 5 6 6 5 5 6 5 5 5 5 5 5 5 6 6 6 3
-4 8 3 4 24 18 12 15 1 16 11 17 9 16 14 14 21 24 16 11 17 18 11 8 14 12 8 20 52 28 -26 47 7 6 5 5 6 6 6 5 6 6 5 6 6 7 3 3 -1
2 15 12 33 18 13 10 1 12 9 12 10 9 11 22 15 8 13 23 19 17 15 15 7 10 2 2 -2 10 21 58 16 3 6 2 3 5 6 6 6 6 6 7 7 7 2 1 3 3
6 17 16 13 8 -1 -0 27 -12 5 -7 6 -3 -11 -12 6 24 10 13 9 17 22 14 16 7 1 4 10 6 10 23 -4 1 16 12 4 3 4 6 6 7 7 7 6 5 -0 5 5 6
6 8 -1 12 5 -15 18 15 -14 2 13 14 5 3 -9 -1 18 18 7 11 14 17 19 14 15 8 8 19 -5 3 29 21 20 -12 -2 7 3 4 5 6 7 6 7 5 1 6 4 3 4
11 9 4 4 19 12 8 16 34 12 6 -0 14 2 -9 20 21 13 13 -0 22 15 17 4 23 16 9 11 4 -3 -1 30 2 17 12 12 13 5 2 4 6 7 7 1 3 2 5 8 12
16 -4 2 12 10 10 11 13 -12 -19 -29 -2 -32 0 4 23 8 20 10 17 -1 26 11 8 10 14 14 12 15 -3 16 22 31 12 21 6 1 7 4 3 5 5 5 5 10 -2 9 12 -15
7 9 13 5 3 1 7 16 4 -14 26 6 -32 0 21 8 13 12 32 7 13 15 20 3 2 13 11 10 -0 5 -3 39 1 4 13 -15 -1 11 10 7 4 4 5 7 -0 12 3 35 24
18 5 8 -8 18 4 -4 8 48 24 12 -39 -11 17 24 3 10 6 24 15 18 5 29 8 6 14 19 6 7 5 12 -6 13 -3 20 16 9 10 13 10 6 11 4 6 -17 45 17 4 4
Height
3121 3121 3122 3124 3130 3124 3122 3124 3123 3126 3127 3125 3125 3128 3131 3132 3135 3137 3131 3130 3131 3131 3131 3132 3133 3135 3136 3137 3140 3141 3143 3145 3146 3149 3150 3152 3154 3155 3156 3157 3157 3158 3158 3158 3159 3158 3158 3157 3157
3118 3118 3120 3121 3124 3121 3118 3120 3118 3121 3121 3121 3121 3122 3124 3124 3127 3127 3128 3128 3129 3130 3129 3130 3131 3133 3134 3136 3138 3140 3142 3144 3146 3148 3150 3151 3153 3154 3156 3157 3158 3158 3158 3158 3158 3158 3158 3157 3157
3116 3115 3117 3118 3116 3114 3115 3114 3116 3115 3115 3116 3117 3115 3117 3120 3121 3123 3125 3125 3126 3127 3127 3127 3129 3130 3132 3134 3137 3139 3141 3143 3145 3147 3149 3151 3152 3154 3155 3157 3158 3158 3158 3158 3158 3158 3158 3158 3157
3112 3113 3114 3112 3109 3111 3110 3110 3108 3110 3111 3112 3110 3112 3111 3113 3115 3117 3120 3121 3122 3124 3125 3125 3126 3128 3130 3132 3135 3137 3139 3141 3143 3145 3148 3150 3152 3153 3155 3157 3158 3159 3159 3159 3159 3159 3158 3158 3157
3110 3109 3109 3107 3106 3105 3105 3104 3103 3104 3105 3106 3105 3104 3105 3108 3109 3111 3113 3115 3117 3120 3121 3122 3123 3125 3128 3130 3133 3135 3137 3139 3142 3144 3147 3149 3151 3153 3154 3156 3157 3158 3159 3159 3160 3159 3159 3159 3158
3107 3107 3106 3105 3105 3100 3100 3098 3097 3097 3100 3100 3100 3098 3100 3101 3102 3105 3107 3109 3111 3114 3117 3119 3120 3123 3125 3128 3130 3133 3135 3137 3140 3142 3145 3148 3150 3152 3154 3155 3157 3158 3159 3159 3160 3160 3160 3159 3158
3104 3103 3102 3099 3099 3097 3095 3094 3092 3092 3092 3094 3093 3091 3094 3096 3097 3099 3101 3104 3106 3109 3112 3115 3117 3119 3122 3125 3128 3130 3133 3135 3138 3141 3144 3147 3149 3151 3153 3154 3156 3157 3158 3159 3160 3160 3160 3160 3159
3101 3101 3098 3096 3096 3094 3091 3090 3088 3087 3086 3085 3084 3084 3090 3088 3090 3093 3096 3098 3100 3102 3107 3110 3113 3115 3119 3122 3125 3127 3130 3133 3136 3139 3142 3145 3148 3150 3152 3153 3154 3156 3157 3158 3159 3160 3160 3160 3160
3100 3099 3096 3094 3091 3090 3087 3085 3085 3082 3079 3078 3077 3076 3080 3081 3084 3087 3090 3092 3093 3096 3101 3104 3108 3111 3115 3117 3121 3124 3127 3130 3133 3136 3139 3143 3146 3148 3150 3152 3153 3155 3157 3157 3158 3159 3159 3159 3160
3096 3095 3092 3090 3087 3083 3081 3079 3078 3077 3073 3071 3070 3071 3075 3076 3077 3080 3083 3085 3089 3092 3097 3100 3103 3107 3111 3114 3117 3121 3123 3127 3130 3133 3136 3140 3143 3146 3148 3150 3152 3153 3155 3156 3157 3158 3159 3159 3159
3093 3092 3088 3086 3083 3079 3075 3073 3073 3069 3065 3066 3065 3066 3069 3069 3070 3072 3076 3078 3082 3088 3092 3094 3098 3103 3106 3110 3113 3117 3120 3123 3126 3130 3133 3137 3140 3143 3146 3148 3149 3151 3152 3154 3155 3156 3157 3158 3158
3090 3087 3085 3082 3079 3075 3072 3068 3065 3064 3060 3061 3060 3059 3062 3062 3064 3065 3069 3072 3076 3077 3084 3088 3093 3098 3102 3106 3109 3113 3117 3120 3123 3127 3130 3133 3137 3141 3143 3145 3147 3149 3150 3152 3153 3154 3155 3156 3157
3087 3084 3080 3077 3074 3070 3067 3064 3059 3057 3057 3055 3053 3053 3054 3055 3058 3059 3061 3064 3063 3060 3075 3082 3088 3092 3097 3101 3105 3108 3112 3116 3120 3123 3126 3130 3133 3137 3141 3143 3145 3146 3148 3149 3151 3152 3153 3154 3155
3085 3080 3077 3074 3071 3066 3063 3060 3055 3055 3051 3049 3048 3047 3047 3049 3052 3053 3055 3057 3059 3061 3069 3076 3081 3086 3091 3096 3101 3104 3108 3112 3116 3119 3122 3127 3130 3133 3138 3140 3142 3144 3145 3146 3148 3150 3151 3152 3153
3082 3078 3075 3071 3067 3063 3059 3054 3050 3049 3046 3045 3042 3041 3040 3042 3046 3049 3051 3054 3057 3052 3061 3065 3073 3080 3086 3091 3095 3099 3103 3107 3112 3115 3119 3123 3127 3129 3133 3136 3139 3142 3143 3144 3145 3147 3148 3149 3150
3079 3075 3071 3068 3064 3060 3057 3046 3049 3044 3040 3038 3037 3036 3034 3035 3039 3044 3046 3048 3049 3049 3045 3053 3064 3069 3077 3085 3090 3094 3099 3102 3107 3111 3114 3118 3123 3125 3130 3132 3136 3138 3140 3142 3143 3144 3146 3146 3147
3077 3074 3070 3066 3062 3058 3054 3043 3042 3039 3033 3029 3030 3029 3030 3030 3033 3040 3043 3045 3045 3043 3045 3044 3053 3057 3069 3077 3083 3088 3094 3098 3102 3107 3110 3114 3118 3122 3125 3128 3131 3135 3137 3138 3140 3141 3142 3143 3144
3075 3072 3067 3064 3061 3055 3050 3040 3036 3033 3026 3023 3024 3024 3025 3025 3028 3034 3037 3039 3042 3042 3042 3046 3048 3049 3058 3068 3074 3081 3087 3092 3097 3102 3106 3109 3114 3118 3121 3125 3127 3131 3134 3135 3136 3138 3139 3140 3141
3073 3069 3064 3061 3057 3051 3046 3038 3035 3031 3026 3021 3020 3020 3021 3022 3025 3028 3032 3034 3037 3035 3038 3041 3046 3048 3049 3059 3066 3074 3083 3089 3092 3097 3100 3104 3108 3113 3117 3121 3124 3126 3128 3131 3132 3133 3135 3136 3137
3069 3066 3062 3057 3053 3049 3042 3036 3034 3031 3027 3023 3020 3018 3019 3020 3021 3024 3028 3029 3034 3036 3035 3031 3039 3041 3038 3048 3057 3068 3078 3084 3088 3092 3096 3099 3104 3109 3113 3116 3119 3121 3124 3126 3128 3129 3131 3132 3134
3066 3063 3060 3057 3050 3047 3040 3035 3033 3031 3027 3024 3022 3019 3017 3017 3018 3019 3022 3024 3027 3031 3032 3035 3036 3042 3035 3042 3051 3067 3072 3076 3080 3085 3091 3096 3100 3104 3107 3111 3114 3117 3119 3122 3124 3126 3128 3129 3130
3062 3060 3058 3054 3051 3049 3043 3038 3031 3030 3027 3024 3021 3018 3017 3016 3015 3016 3017 3019 3022 3025 3029 3032 3033 3034 3031 3041 3044 3059 3070 3074 3077 3082 3086 3089 3094 3098 3102 3106 3110 3113 3115 3118 3120 3122 3124 3125 3126
3060 3057 3055 3051 3048 3046 3042 3041 3031 3028 3027 3024 3021 3018 3016 3015 3014 3013 3014 3015 3017 3020 3023 3029 3031 3033 3033 3035 3042 3054 3061 3065 3073 3077 3081 3084 3088 3093 3097 3101 3105 3109 3111 3113 3115 3117 3118 3119 3121
3056 3053 3051 3047 3045 3045 3040 3041 3029 3027 3025 3024 3021 3018 3016 3015 3014 3014 3012 3012 3013 3014 3017 3020 3025 3028 3031 3033 3037 3042 3044 3056 3068 3071 3075 3079 3083 3087 3091 3095 3098 3102 3105 3108 3110 3112 3113 3114 3115
3054 3052 3050 3046 3043 3037 3037 3037 3027 3025 3023 3022 3020 3018 3016 3015 3014 3012 3011 3010 3009 3010 3012 3016 3018 3023 3027 3029 3033 3036 3043 3050 3059 3065 3069 3072 3077 3081 3086 3090 3093 3096 3099 3102 3104 3106 3108 3108 3109
3051 3052 3050 3045 3039 3037 3035 3030 3025 3023 3022 3020 3018 3016 3014 3013 3010 3009 3009 3008 3006 3007 3007 3010 3014 3017 3021 3025 3029 3033 3037 3043 3048 3053 3062 3068 3071 3076 3080 3084 3088 3091 3093 3096 3099 3101 3102 3103 3103
3049 3049 3048 3046 3041 3040 3030 3024 3022 3020 3020 3018 3017 3016 3013 3009 3005 3003 3003 3003 3003 3004 3006 3008 3010 3013 3017 3021 3025 3027 3029 3033 3039 3045 3051 3055 3063 3068 3072 3077 3081 3085 3088 3090 3093 3095 3096 3097 3098
3047 3047 3047 3045 3040 3034 3025 3022 3018 3017 3016 3016 3013 3010 3006 3002 3001 2998 2996 2996 2996 2997 3001 3003 3005 3007 3012 3016 3018 3021 3023 3027 3030 3037 3044 3049 3056 3062 3066 3068 3073 3076 3080 3083 3085 3087 3089 3090 3091
3044 3042 3042 3042 3039 3032 3024 3014 3013 3014 3012 3011 3009 3006 3002 2997 2994 2992 2990 2990 2991 2991 2992 2995 2998 3001 3005 3007 3011 3015 3017 3020 3024 3030 3035 3042 3045 3052 3058 3060 3064 3069 3073 3076 3077 3079 3080 3082 3084
3037 3038 3038 3037 3034 3032 3029 3011 3009 3007 3007 3007 3003 3000 2997 2993 2989 2986 2983 2983 2986 2985 2987 2990 2992 2994 2997 3002 3005 3008 3012 3016 3020 3024 3027 3032 3035 3039 3045 3050 3056 3061 3064 3067 3070 3072 3073 3076 3080